Location: Unspecified
(0.0000°N, 0.0000°E)
Time: 14:56:44
(UTC+02:00)

Atlas Centaur 2 - Visible Passes

Search period start: 26 May 2017 00:00
Search period end: 05 June 2017 00:00
Orbit: 459 x 1314 km, 30.4° (Epoch: 25 May)

Date Brightness Start Highest point End Pass type
(mag) Time Alt. Az. Time Alt. Az. Time Alt. Az.
26 May 4.8 04:15:15 23° ENE 04:15:15 23° ENE 04:18:09 10° ENE visible
26 May 3.6 05:57:52 40° WNW 05:59:46 46° NNW 06:07:47 10° NE visible
27 May 4.9 04:12:07 23° ENE 04:12:07 23° ENE 04:14:54 10° ENE visible
27 May 3.8 05:54:45 34° NW 05:56:27 37° NNW 06:04:06 10° NNE visible
28 May 4.9 04:08:57 22° NE 04:08:57 22° NE 04:11:31 10° NE visible
28 May 4.1 05:51:35 28° NW 05:53:12 29° NNW 06:00:21 10° NNE visible
29 May 5.0 04:05:44 20° NE 04:05:44 20° NE 04:08:02 10° NE visible
29 May 4.4 05:48:21 22° NW 05:50:01 24° NNW 05:56:29 10° NNE visible
30 May 5.1 04:02:28 18° NE 04:02:28 18° NE 04:04:26 10° NE visible
30 May 4.6 05:45:06 18° NW 05:46:52 19° NNW 05:52:28 10° NNE visible
31 May 5.2 03:59:09 16° NNE 03:59:09 16° NNE 04:00:46 10° NE visible
31 May 4.8 05:41:46 14° NW 05:43:49 15° NNW 05:48:15 10° N visible
01 Jun 5.3 03:55:50 14° NNE 03:55:50 14° NNE 03:56:58 10° NNE visible
01 Jun 5.0 05:38:26 10° NW 05:40:50 12° NNW 05:43:37 10° N visible
02 Jun 5.4 03:52:27 12° NNE 03:52:27 12° NNE 03:53:03 10° NNE visible
